Location: Keppel Henge
(44.7900°N, 80.9447°W)
Time: 03:07:34
(UTC-05:00)

Tiangong 2 - Pass Details

Date: 14 October 2017
Orbit: 386 x 390 km, 42.8° (Epoch: 14 December)

Event Time Altitude Azimuth Distance (km) Brightness Sun altitude
Exits shadow 06:30:18 24° 256° (WSW) 870 2.2 -12.8°
Maximum altitude 06:32:03 60° 182° (S) 451 1.3 -12.5°
Drops below altitude 10° 06:35:13 10° 102° (ESE) 1,425 5.4 -12.0°
Sets 06:37:19 0° 99° (E) 2,282 7.0 -11.6°
